Date String (YYYY-MM-DD hh:mm:ss) UTC,Instrument flags,absolute air pressure of the measurement (hPa),sample flow rate (lpm),inlet stack bypass flow (lpm),air temperature of the measurement (°C),ambient temperature measured by the external sensor (°C),aerosol sample conditioner tube jacket temperature (°C),OPC LED temperature (°C),internal box temperature (°C),relative humidity of the measurement (%),span deviation,mass concentration of particles derived from Lorenz-Mie calculation of OPC scattering (μg/m³),mass concentration of particles derived from Lorenz-Mie calculation of OPC scattering (μg/m³),mass concentration of particles derived from Lorenz-Mie calculation of OPC scattering (μg/m³)
DateTimeUTC,F1_M11,P_M11,Q1_M11,Q2_M11,T1_M11,T2_M11,T3_M11,T4_M11,T5_M11,U1_M11,ZSPAN_M11,X0_M11,X2_M11,X1_M11
2023-07-16 11:00:00,SystemResetWarning,0834.0,5.00,000.00,030.0,028.6,000.0,038.4,031.5,14.9,0000.0,0009.43,0004.71,0004.25
2023-07-16 11:01:00,SystemResetWarning,0834.1,5.00,000.00,030.0,028.6,000.0,038.4,031.5,14.9,0000.0,0009.28,0004.69,0004.23
2023-07-16 11:02:00,SystemResetWarning,0834.1,5.00,000.00,030.0,028.7,000.0,038.4,031.5,15.2,0000.0,0009.01,0004.63,0004.18
2023-07-16 11:03:00,SystemResetWarning,0834.1,5.01,000.00,030.0,028.7,000.0,038.5,031.5,15.5,0000.0,0008.85,0004.57,0004.14
2023-07-16 11:04:00,SystemResetWarning,0834.1,5.00,000.00,030.0,028.7,000.0,038.5,031.5,15.6,0000.0,0009.19,0004.56,0004.13
2023-07-16 11:05:00,SystemResetWarning,0834.1,5.00,000.00,030.0,028.7,000.0,038.5,031.5,15.5,0000.0,0009.25,0004.55,0004.11
2023-07-16 11:06:00,SystemResetWarning,0834.1,5.00,000.00,030.0,028.7,000.0,038.5,031.6,15.2,0000.0,0009.28,0004.54,0004.08
2023-07-16 11:07:00,SystemResetWarning,0834.1,5.00,000.00,030.1,028.7,000.0,038.5,031.6,14.9,0000.0,0008.68,0004.40,0003.97
2023-07-16 11:08:00,SystemResetWarning,0834.1,4.99,000.00,030.1,028.7,000.0,038.5,031.6,15.2,0000.0,0008.29,0004.26,0003.85
2023-07-16 11:09:00,SystemResetWarning,0834.2,4.99,000.00,030.1,027.7,000.0,038.5,031.5,14.9,0000.0,0008.78,0004.10,0003.73
2023-07-16 11:10:00,SystemResetWarning,0834.1,5.01,000.00,030.0,025.7,000.0,038.3,031.3,14.5,0000.0,0008.99,0003.99,0003.62
2023-07-16 11:11:00,SystemResetWarning,0834.1,5.00,000.00,029.9,025.1,000.0,038.2,031.0,15.6,0000.0,0008.89,0003.90,0003.55
2023-07-16 11:12:00,SystemResetWarning,0834.1,5.01,000.00,029.7,025.4,000.0,038.2,030.8,15.7,0000.0,0008.90,0003.87,0003.50
2023-07-16 11:13:00,SystemResetWarning,0834.1,5.01,000.00,029.7,025.8,000.0,038.3,030.8,14.4,0000.0,0009.41,0003.84,0003.47
2023-07-16 11:14:00,SystemResetWarning,0834.1,4.99,000.00,029.6,026.2,000.0,038.2,030.8,14.4,0000.0,0009.59,0003.83,0003.45
2023-07-16 11:15:00,SystemResetWarning,0834.1,5.00,000.00,029.6,026.6,000.0,038.2,030.9,16.5,0000.0,0009.78,0003.79,0003.44
2023-07-16 11:16:00,SystemResetWarning,0834.1,5.00,000.00,029.6,026.9,000.0,038.2,030.9,16.4,0000.0,0010.02,0003.83,0003.44
2023-07-16 11:17:00,SystemResetWarning,0834.1,5.01,000.00,029.6,027.1,000.0,038.2,030.9,15.3,0000.0,0010.11,0003.82,0003.44
2023-07-16 11:18:00,SystemResetWarning,0834.2,5.01,000.00,029.6,027.3,000.0,038.2,031.0,16.6,0000.0,0010.31,0003.82,0003.42
2023-07-16 11:19:00,SystemResetWarning,0834.1,5.00,000.00,029.6,027.5,000.0,038.2,031.0,16.0,0000.0,0010.05,0003.81,0003.41
2023-07-16 11:20:00,SystemResetWarning,0834.1,4.99,000.00,029.6,027.7,000.0,038.2,031.0,16.0,0000.0,0009.14,0003.81,0003.41
2023-07-16 11:21:00,SystemResetWarning,0834.1,5.00,000.00,029.6,027.8,000.0,038.1,031.1,15.5,0000.0,0008.84,0003.83,0003.42
2023-07-16 11:22:00,SystemResetWarning,0834.0,5.01,000.00,029.6,027.9,000.0,038.1,031.1,13.9,0000.0,0008.83,0003.86,0003.45
2023-07-16 11:23:00,SystemResetWarning,0834.1,5.01,000.00,029.6,028.0,000.0,038.1,031.1,14.0,0000.0,0008.72,0003.83,0003.44
2023-07-16 11:24:00,SystemResetWarning,0834.1,4.99,000.00,029.6,028.0,000.0,038.1,031.1,13.3,0000.0,0008.10,0003.80,0003.41
2023-07-16 11:25:00,SystemResetWarning,0834.1,4.99,000.00,029.6,028.1,000.0,038.1,031.1,13.5,0000.0,0007.86,0003.81,0003.42
2023-07-16 11:26:00,SystemResetWarning,0834.1,5.00,000.00,029.6,028.2,000.0,038.1,031.1,13.4,0000.0,0007.50,0003.87,0003.45
2023-07-16 11:27:00,SystemResetWarning,0834.1,5.00,000.00,029.7,028.2,000.0,038.1,031.2,13.1,0000.0,0008.17,0003.85,0003.45
2023-07-16 11:28:00,SystemResetWarning,0834.1,5.01,000.00,029.7,028.2,000.0,038.2,031.2,13.1,0000.0,0008.12,0003.89,0003.48
2023-07-16 11:29:00,SystemResetWarning,0834.1,5.00,000.00,029.7,028.3,000.0,038.2,031.3,13.2,0000.0,0007.88,0003.93,0003.51
2023-07-16 11:30:00,SystemResetWarning,0834.2,4.99,000.00,029.7,028.3,000.0,038.2,031.3,13.2,0000.0,0008.21,0003.97,0003.53
2023-07-16 11:31:00,SystemResetWarning,0834.2,4.99,000.00,029.7,028.3,000.0,038.2,031.3,13.4,0000.0,0009.17,0003.99,0003.55
2023-07-16 11:32:00,SystemResetWarning,0834.2,5.00,000.00,029.7,028.3,000.0,038.2,031.3,13.4,0000.0,0009.01,0003.93,0003.52
2023-07-16 11:33:00,SystemResetWarning,0834.2,4.99,000.00,029.8,028.4,000.0,038.2,031.3,13.4,0000.0,0008.89,0003.86,0003.46
2023-07-16 11:34:00,SystemResetWarning,0834.2,4.99,000.00,029.8,028.4,000.0,038.2,031.3,13.1,0000.0,0008.90,0003.84,0003.43
2023-07-16 11:35:00,SystemResetWarning,0834.2,4.99,000.00,029.8,028.4,000.0,038.2,031.3,13.5,0000.0,0008.98,0003.81,0003.42
2023-07-16 11:36:00,SystemResetWarning,0834.2,5.01,000.00,029.8,028.4,000.0,038.2,031.3,13.5,0000.0,0009.04,0003.74,0003.35
2023-07-16 11:37:00,SystemResetWarning,0834.3,5.00,000.00,029.8,028.4,000.0,038.3,031.4,13.4,0000.0,0008.75,0003.63,0003.26
2023-07-16 11:38:00,SystemResetWarning,0834.3,5.01,000.00,029.8,028.5,000.0,038.3,031.4,13.4,0000.0,0008.69,0003.56,0003.20
2023-07-16 11:39:00,SystemResetWarning,0834.3,5.00,000.00,029.8,028.5,000.0,038.3,031.4,13.3,0000.0,0008.62,0003.49,0003.12
2023-07-16 11:40:00,SystemResetWarning,0834.2,5.00,000.00,029.9,028.5,000.0,038.3,031.4,13.5,0000.0,0009.37,0003.40,0003.01
2023-07-16 11:41:00,SystemResetWarning,0834.3,5.01,000.00,029.9,028.5,000.0,038.3,031.4,13.6,0000.0,0009.30,0003.35,0002.88
2023-07-16 11:42:00,SystemResetWarning,0834.4,5.00,000.00,029.9,028.5,000.0,038.3,031.4,13.5,0000.0,0008.29,0003.29,0002.79
2023-07-16 11:43:00,SystemResetWarning,0834.3,5.00,000.00,029.9,028.5,000.0,038.3,031.4,13.8,0000.0,0008.25,0003.27,0002.75
2023-07-16 11:44:00,SystemResetWarning,0834.7,5.00,000.00,029.9,028.5,000.0,038.4,031.4,13.1,0000.0,0008.29,0003.27,0002.73
2023-07-16 11:45:00,SystemResetWarning,0834.6,5.00,000.00,029.9,028.5,000.0,038.4,031.4,13.2,0000.0,0008.24,0003.25,0002.72
2023-07-16 11:46:00,SystemResetWarning,0834.3,5.00,000.00,029.9,028.5,000.0,038.4,031.5,12.9,0000.0,0008.10,0003.25,0002.71
2023-07-16 11:47:00,SystemResetWarning,0834.4,5.00,000.00,029.9,028.6,000.0,038.4,031.5,13.3,0000.0,0008.30,0003.23,0002.68
2023-07-16 11:48:00,SystemResetWarning,0834.4,5.00,000.00,030.0,028.6,000.0,038.4,031.5,13.4,0000.0,0008.42,0003.23,0002.69
2023-07-16 11:49:00,SystemResetWarning,0834.3,5.00,000.00,030.0,028.6,000.0,038.4,031.5,14.3,0000.0,0007.45,0003.22,0002.68
2023-07-16 11:50:00,SystemResetWarning,0834.4,5.00,000.00,030.0,028.6,000.0,038.4,031.5,13.6,0000.0,0007.51,0003.20,0002.67
2023-07-16 11:51:00,SystemResetWarning,0834.4,5.00,000.00,030.0,028.6,000.0,038.4,031.5,13.6,0000.0,0006.78,0003.20,0002.68
2023-07-16 11:52:00,SystemResetWarning,0834.3,5.00,000.00,030.0,028.6,000.0,038.4,031.5,13.8,0000.0,0006.20,0003.13,0002.68
2023-07-16 11:53:00,SystemResetWarning,0834.5,4.99,000.00,030.0,028.6,000.0,038.5,031.5,13.5,0000.0,0006.10,0003.11,0002.67
2023-07-16 11:54:00,SystemResetWarning,0834.3,4.99,000.00,030.0,028.6,000.0,038.5,031.5,13.4,0000.0,0006.14,0003.11,0002.66
2023-07-16 11:55:00,SystemResetWarning,0834.3,5.00,000.00,030.0,028.6,000.0,038.5,031.5,13.5,0000.0,0006.02,0003.08,0002.64
2023-07-16 11:56:00,SystemResetWarning,0834.3,5.00,000.00,030.0,028.6,000.0,038.5,031.5,13.1,0000.0,0006.20,0003.09,0002.62
2023-07-16 11:57:00,SystemResetWarning,0834.3,5.00,000.00,030.0,028.6,000.0,038.5,031.5,13.6,0000.0,0006.36,0003.09,0002.60
2023-07-16 11:58:00,SystemResetWarning,0834.4,5.01,000.00,030.1,028.6,000.0,038.5,031.6,13.2,0000.0,0006.40,0003.11,0002.60
2023-07-16 11:59:00,SystemResetWarning,0834.4,5.01,000.00,030.1,028.6,000.0,038.5,031.6,13.3,0000.0,0006.22,0003.11,0002.60
